Location: Newark
(38.1091°N, 103.8677°W)
Time: 00:27:05
(UTC+00:00)

N. Korean satellite - Pass Details

Date: 22 October 2019
Orbit: 456 x 506 km, 97.2° (Epoch: 16 November)

Event Time Altitude Azimuth Distance (km) Brightness Sun altitude
Rises 11:49:57 0° 33° (NNE) 2,571 10.7 -16.6°
Reaches altitude 10° 11:52:48 10° 58° (ENE) 1,694 10.2 -16.0°
Maximum altitude 11:54:53 15° 93° (E) 1,433 10.2 -15.6°
Drops below altitude 10° 11:56:58 10° 128° (SE) 1,699 10.1 -15.2°
Sets 11:59:49 0° 153° (SSE) 2,584 10.7 -14.7°
